Regional Weather Roundup
Issued by NWS

Home | Current Version | Previous Version | Graphics & Text | Print | Product List | Glossary Off
Versions: 1 2 3 4 5 6 7 8 9 10 11 12 13 14 15 16 17 18 19 20 21 22 23 24 25 26 27 28 29 30 31 32 33 34 35 36 37 38 39 40 41 42 43 44 45 46 47 48 49 50

000
ASUS43 KLSX 222307
RWRMO

WEATHER SUMMARY FOR MISSOURI
NATIONAL WEATHER SERVICE SPRINGFIELD MO
600 PM CDT SUN OCT 22 2017

NOTE: "FAIR" INDICATES FEW OR NO CLOUDS BELOW 12,000 FEET WITH NO
       SIGNIFICANT WEATHER AND/OR OBSTRUCTIONS TO VISIBILITY.
       CURRENT SKY AND/OR WEATHER CONDITIONS ARE NOT AVAILABLE FOR
       CHILLICOTHE AND FARMINGTON.

MOZ001>031-035>038-043-044-053-054-230000-
...NORTHERN AND WESTERN MISSOURI...

CITY           SKY/WX    TMP DP  RH WIND       PRES   REMARKS
KANSAS CTY INT PTCLDY    61  42  49 SE7       30.09S
KANSAS C DTWN  CLEAR     66  37  34 CALM      30.09S
LEE`S SUMMIT   PTCLDY    62  39  42 N5        30.10S
ST JOSEPH      CLEAR     66  34  30 CALM      30.07F HAZE
CHILLICOTHE      N/A     60  46  59 CALM      30.10S
KIRKSVILLE     CLOUDY    54  51  90 CALM      30.10R

$$
MOZ066>068-077>081-088>096-101>105-230000-
...SOUTHWEST MISSOURI...

CITY           SKY/WX    TMP DP  RH WIND       PRES   REMARKS
SPRINGFIELD    CLOUDY    52  50  93 NW6       30.09F
JOPLIN         PTCLDY    61  46  57 CALM      30.11S
BRANSON        CLOUDY    50  48  93 NW5       30.11S

$$
MOZ032>034-039>042-045>050-055>058-069>072-230000-
...CENTRAL MISSOURI...

CITY           SKY/WX    TMP DP  RH WIND       PRES   REMARKS
COLUMBIA       CLOUDY    53  51  93 NW6       30.08F
JEFFERSON CITY CLOUDY    54  50  86 NW3       30.08F
ROLLA          LGT RAIN  50  50 100 NW9       30.07F
SEDALIA        CLOUDY    56  53  90 W3        30.11F
WHITEMAN AFB   CLOUDY    59  49  70 CALM      30.06F
WARRENSBURG    CLOUDY    59  43  55 NW7       30.10F
OSAGE BEACH    LGT RAIN  51  50  96 CALM      30.10F

$$
MOZ051-052-059>065-230000-
...EAST CENTRAL MISSOURI...

CITY           SKY/WX    TMP DP  RH WIND       PRES   REMARKS
ST LOUIS INTL  LGT RAIN  55  51  86 NW8       30.04S FOG
SPIRIT OF STL  LGT RAIN  56  50  80 N6        30.05R
ST CHARLES     LGT RAIN  55  50  83 N8        30.04S

$$
MOZ072>076-082>087-097>100-106>115-230000-
...SOUTH CENTRAL AND SOUTHEAST MISSOURI...

CITY           SKY/WX    TMP DP  RH WIND       PRES   REMARKS
CAPE GIRARDEAU LGT RAIN  57  55  93 N12       29.98S
FARMINGTON     LGT RAIN  52  51  97 N6        30.03S
POPLAR BLUFF   LGT RAIN  58  56  93 N14       29.96S
WEST PLAINS    LGT RAIN  53  51  93 N8        30.05F

$$



USA.gov is the U.S. government's official web portal to all federal, state and local government web resources and services.